Flag for Turkmenistan Weather past 2 weeks in Ashgabat, Turkmenistan

Now
84 °F

Partly cloudy.


Feels Like: 86 °F
Forecast: 78 / 99 °F
Wind: 13 mph from Northwest

Location: Ashgabat

Current Time: Jul 5, 2015 at 6:25:10 AM

Latest Report: Jul 5, 2015 at 6:00 AM


Visibility: N/A

Pressure: 29.95 "Hg

Humidity: 51%

Dew point: 64 °F

Location of AshgabatLocation

Historic Weather in Ashgabat — Graph

°F

Ashgabat temperature yesterday

Maximum temperature yesterday: 108 °F (at 3:30 PM)
Minimum temperature yesterday: 84 °F (at 3:00 AM)
Average temperature yesterday: 98 °F

Past Weeks' High & Low Weather Summary

 TemperatureHumidityPressure
High113 °F (Jul 1, 5:00 PM)52% (Jul 5, 1:00 AM)29.92 "Hg (Jul 5, 1:00 AM)
Low73 °F (Jun 26, 6:00 AM)6% (Jun 21, 3:00 PM)29.47 "Hg (Jun 26, 5:00 PM)
Average97 °F16%29.69 "Hg
* Reported Jun 20 5:00 AM — Jul 5 5:00 AM, Ashgabat, Weather by CustomWeather, © 2015

Note: Actual official high and low records may vary slightly from our data, if they occured in-between our weather recording intervals... More about our weather records

Advertising

Ashgabat weather history for previous 24 hours

 ConditionsComfort  
Time TempWeatherWind HumidityBarometerVisibility
5:00 AM
Sun, Jul 5
84 °FClear.10 mph51%29.92 "HgN/A
4:00 AM86 °FClear.10 mph49%29.89 "HgN/A
3:00 AM88 °FClear.10 mph46%29.89 "HgN/A
2:00 AM88 °FClear.8 mph49%29.89 "HgN/A
1:00 AM88 °FPartly cloudy.6 mph52%29.86 "HgN/A
12:00 AM91 °FPartly cloudy.6 mph41%29.86 "HgN/A
11:00 PM
Sat, Jul 4
93 °FPartly cloudy.6 mph39%29.86 "HgN/A
10:00 PM93 °FPassing clouds.13 mph39%29.86 "HgN/A
9:00 PM97 °FPartly sunny.13 mph34%29.83 "HgN/A
8:00 PM100 °FScattered clouds.17 mph29%29.80 "HgN/A
7:00 PM106 °FPassing clouds.13 mph17%29.80 "HgN/A
6:30 PM106 °FPassing clouds.13 mph15%29.80 "HgN/A
6:00 PM108 °FPassing clouds.15 mph13%29.77 "HgN/A
5:30 PM108 °FPassing clouds.15 mph11%29.77 "HgN/A
5:00 PM108 °FPassing clouds.15 mph12%29.80 "HgN/A
4:30 PM108 °FScattered clouds.15 mph12%29.80 "HgN/A
4:00 PM108 °FScattered clouds.13 mph12%29.80 "HgN/A
3:30 PM108 °FScattered clouds.10 mph11%29.80 "HgN/A
3:00 PM106 °FScattered clouds.13 mph13%29.80 "HgN/A
2:30 PM106 °FPassing clouds.10 mph12%29.80 "HgN/A
2:00 PM106 °FPassing clouds.10 mph12%29.83 "HgN/A
1:30 PM104 °FPassing clouds.10 mph13%29.83 "HgN/A
1:00 PM104 °FPassing clouds.10 mph13%29.83 "HgN/A
12:30 PM104 °FScattered clouds.8 mph13%29.83 "HgN/A
12:00 PM102 °FScattered clouds.6 mph13%29.83 "HgN/A
11:00 AM100 °FScattered clouds.6 mph15%29.83 "HgN/A
10:00 AM100 °FBroken clouds.6 mph14%29.80 "HgN/A
9:00 AM95 °FPartly sunny.8 mph19%29.77 "HgN/A
8:30 AM93 °FPartly sunny.8 mph19%29.77 "HgN/A
8:00 AM93 °FPartly sunny.6 mph17%29.77 "HgN/A
7:30 AM91 °FPartly sunny.6 mph21%29.77 "HgN/A
7:00 AM86 °FPartly sunny.3 mph25%29.77 "HgN/A
6:00 AM84 °FPassing clouds.3 mph29%29.77 "HgN/A
Weather by CustomWeather, © 2015

See weather overviewHow to use our weather pages